Location: Unspecified
(35.6961°N, 0.0000°E)
Time: 06:05:53
(UTC+00:00)

UNISAT 6 - Pass Details

Date: 25 June 2019
Orbit: 606 x 690 km, 97.7° (Epoch: 13 October)

Event Time Altitude Azimuth Distance (km) Brightness Sun altitude
Rises 21:26:26 0° 2° (N) 2,898 ? -20.3°
Reaches altitude 10° 21:28:43 10° 354° (N) 1,998 ? -20.6°
Maximum altitude 21:32:43 37° 287° (WNW) 979 ? -21.1°
Enters shadow 21:36:45 10° 220° (SW) 2,016 ? -21.6°
